Location: ??
(34.9170°N, 135.5016°E)
Time: 01:34:42
(UTC+00:00)

Meteor 1-24 Rocket - Pass Details

Date: 29 October 2020
Orbit: 791 x 926 km, 81.3° (Epoch: 25 November)

Event Time Altitude Azimuth Distance (km) Brightness Sun altitude
Rises 18:54:50 0° 173° (S) 3,360 6.9 -29.6°
Reaches altitude 10° 18:57:15 10° 168° (SSE) 2,449 6.2 -29.1°
Maximum altitude 19:02:37 51° 93° (E) 1,070 4.5 -28.0°
Drops below altitude 10° 19:08:12 10° 19° (NNE) 2,553 6.4 -26.9°
Sets 19:10:46 0° 15° (NNE) 3,516 7.1 -26.4°
